Location: Bonningues
(50.7927°N, 2.0150°E)
Time: 10:23:23
(UTC+00:00)

Resurs 01 Rocket - Pass Details

Date: 08 August 2020
Orbit: 635 x 644 km, 98.0° (Epoch: 20 September)

Event Time Altitude Azimuth Distance (km) Brightness Sun altitude
Exits shadow 21:05:05 - 195° (SSW) 2,631 4.5 -13.5°
Reaches altitude 10° 21:06:44 10° 203° (SSW) 2,024 4.0 -13.6°
Maximum altitude 21:10:37 30° 265° (W) 1,146 3.3 -14.1°
Drops below altitude 10° 21:14:33 10° 327° (NNW) 2,043 5.6 -14.5°
Sets 21:17:00 0° 338° (NNW) 2,960 6.5 -14.7°
